Time,TemperatureF,DewpointF,PressureIn,WindDirection,WindDirectionDegrees,WindSpeedMPH,WindSpeedGustMPH,Humidity,HourlyPrecipIn,Conditions,Clouds,dailyrainin,SoftwareType,DateUTC
2013-05-08 00:03:00,57.1,47.4,29.72,South,181,0.0,1.1,70,0.00,CLR,SKC,0.00,WeatherDisplay:10.37,2013-05-08 05:03:00,
2013-05-08 00:08:00,57.1,47.4,29.72,South,181,0.0,0.0,70,0.00,CLR,SKC,0.00,WeatherDisplay:10.37,2013-05-08 05:08:00,
2013-05-08 00:13:00,57.0,47.3,29.72,South,181,0.0,0.0,70,0.00,CLR,SKC,0.00,WeatherDisplay:10.37,2013-05-08 05:13:00,
2013-05-08 00:18:00,56.9,47.2,29.72,South,181,0.0,0.0,70,0.00,CLR,SKC,0.00,WeatherDisplay:10.37,2013-05-08 05:18:00,
2013-05-08 00:23:00,56.8,47.1,29.72,South,181,0.0,0.0,70,0.00,CLR,SKC,0.00,WeatherDisplay:10.37,2013-05-08 05:23:00,
2013-05-08 00:28:00,56.6,46.9,29.72,South,181,0.0,0.0,70,0.00,CLR,SKC,0.00,WeatherDisplay:10.37,2013-05-08 05:28:00,
2013-05-08 00:33:00,56.6,46.9,29.72,South,181,0.0,0.0,70,0.00,CLR,SKC,0.00,WeatherDisplay:10.37,2013-05-08 05:33:00,
2013-05-08 00:38:00,56.5,46.8,29.72,South,181,0.0,0.0,70,0.00,CLR,SKC,0.00,WeatherDisplay:10.37,2013-05-08 05:38:00,
2013-05-08 00:43:00,56.2,46.5,29.72,South,181,0.0,0.0,70,0.00,CLR,SKC,0.00,WeatherDisplay:10.37,2013-05-08 05:43:00,
2013-05-08 00:48:00,56.1,46.4,29.72,South,181,0.0,0.0,70,0.00,CLR,SKC,0.00,WeatherDisplay:10.37,2013-05-08 05:48:00,
2013-05-08 00:53:00,56.0,46.4,29.72,South,181,0.0,0.0,70,0.00,CLR,SKC,0.00,WeatherDisplay:10.37,2013-05-08 05:53:00,
2013-05-08 00:58:00,55.9,46.3,29.72,South,181,0.0,0.0,70,0.00,CLR,SKC,0.00,WeatherDisplay:10.37,2013-05-08 05:58:00,
2013-05-08 01:03:00,55.8,46.2,29.72,South,181,0.0,0.0,70,0.00,CLR,SKC,0.00,WeatherDisplay:10.37,2013-05-08 06:03:00,
2013-05-08 01:08:00,55.6,46.0,29.72,South,181,0.0,0.0,70,0.00,CLR,SKC,0.00,WeatherDisplay:10.37,2013-05-08 06:08:00,
2013-05-08 01:13:00,55.4,45.8,29.72,South,181,0.0,0.0,70,0.00,CLR,SKC,0.00,WeatherDisplay:10.37,2013-05-08 06:13:00,
2013-05-08 01:18:00,55.3,45.7,29.72,South,181,0.0,0.0,70,0.00,CLR,SKC,0.00,WeatherDisplay:10.37,2013-05-08 06:18:00,
2013-05-08 01:23:00,55.2,45.6,29.72,South,181,0.0,0.0,70,0.00,CLR,SKC,0.00,WeatherDisplay:10.37,2013-05-08 06:23:00,
2013-05-08 01:28:00,55.3,45.7,29.72,South,181,0.0,0.0,70,0.00,CLR,SKC,0.00,WeatherDisplay:10.37,2013-05-08 06:28:00,
2013-05-08 01:33:00,55.3,45.7,29.72,South,181,0.0,0.0,70,0.00,CLR,SKC,0.00,WeatherDisplay:10.37,2013-05-08 06:33:00,
2013-05-08 01:38:00,55.3,45.7,29.72,South,181,0.0,0.0,70,0.00,CLR,SKC,0.00,WeatherDisplay:10.37,2013-05-08 06:38:00,
2013-05-08 01:43:00,55.1,45.5,29.72,South,181,0.0,0.0,70,0.00,CLR,SKC,0.00,WeatherDisplay:10.37,2013-05-08 06:43:00,
2013-05-08 01:48:00,55.0,45.4,29.72,South,181,0.0,0.0,70,0.00,CLR,SKC,0.00,WeatherDisplay:10.37,2013-05-08 06:48:00,
2013-05-08 01:53:00,54.8,45.2,29.72,South,181,0.0,0.0,70,0.00,CLR,SKC,0.00,WeatherDisplay:10.37,2013-05-08 06:53:00,
2013-05-08 01:58:00,54.6,45.4,29.72,South,181,0.0,0.0,71,0.00,CLR,SKC,0.00,WeatherDisplay:10.37,2013-05-08 06:58:00,
2013-05-08 02:03:00,54.4,45.2,29.72,South,181,0.0,0.0,71,0.00,CLR,SKC,0.00,WeatherDisplay:10.37,2013-05-08 07:03:00,
2013-05-08 02:08:00,53.9,44.7,29.72,South,181,0.0,0.0,71,0.00,CLR,SKC,0.00,WeatherDisplay:10.37,2013-05-08 07:08:00,
2013-05-08 02:13:00,52.8,44.0,29.72,South,181,0.0,0.0,72,0.00,CLR,SKC,0.00,WeatherDisplay:10.37,2013-05-08 07:13:00,
2013-05-08 02:18:00,52.1,44.1,29.72,South,181,0.0,0.0,74,0.00,CLR,SKC,0.00,WeatherDisplay:10.37,2013-05-08 07:18:00,
2013-05-08 02:23:00,51.8,44.1,29.72,South,181,0.0,0.0,75,0.00,CLR,SKC,0.00,WeatherDisplay:10.37,2013-05-08 07:23:00,
2013-05-08 02:28:00,51.9,44.6,29.72,South,181,0.0,0.0,76,0.00,CLR,SKC,0.00,WeatherDisplay:10.37,2013-05-08 07:28:00,
2013-05-08 02:33:00,52.1,44.4,29.72,South,181,0.0,0.0,75,0.00,CLR,SKC,0.00,WeatherDisplay:10.37,2013-05-08 07:33:00,
2013-05-08 02:38:00,52.3,44.3,29.72,South,181,0.0,0.0,74,0.00,CLR,SKC,0.00,WeatherDisplay:10.37,2013-05-08 07:38:00,
2013-05-08 02:43:00,52.5,44.4,29.72,South,181,0.0,0.0,74,0.00,CLR,SKC,0.00,WeatherDisplay:10.37,2013-05-08 07:43:00,
2013-05-08 02:48:00,52.6,44.5,29.72,South,181,0.0,0.0,74,0.00,CLR,SKC,0.00,WeatherDisplay:10.37,2013-05-08 07:48:00,
2013-05-08 02:53:00,52.7,44.6,29.72,South,181,0.4,1.1,74,0.00,CLR,SKC,0.00,WeatherDisplay:10.37,2013-05-08 07:53:00,
2013-05-08 02:58:00,52.7,44.6,29.72,South,181,0.0,0.0,74,0.00,CLR,SKC,0.00,WeatherDisplay:10.37,2013-05-08 07:58:00,
2013-05-08 03:03:00,52.6,44.5,29.72,South,181,0.0,0.0,74,0.00,CLR,SKC,0.00,WeatherDisplay:10.37,2013-05-08 08:03:00,
2013-05-08 03:08:00,52.4,44.0,29.72,South,181,0.0,0.0,73,0.00,CLR,SKC,0.00,WeatherDisplay:10.37,2013-05-08 08:08:00,
2013-05-08 03:13:00,52.0,44.0,29.72,South,181,0.0,0.0,74,0.00,CLR,SKC,0.00,WeatherDisplay:10.37,2013-05-08 08:13:00,
2013-05-08 03:18:00,51.8,43.8,29.72,South,181,0.0,1.1,74,0.00,CLR,SKC,0.00,WeatherDisplay:10.37,2013-05-08 08:18:00,
2013-05-08 03:23:00,51.7,44.0,29.72,South,181,0.0,0.0,75,0.00,CLR,SKC,0.00,WeatherDisplay:10.37,2013-05-08 08:23:00,
2013-05-08 03:28:00,51.7,44.0,29.72,South,181,0.0,0.0,75,0.00,CLR,SKC,0.00,WeatherDisplay:10.37,2013-05-08 08:28:00,
2013-05-08 03:33:00,51.7,44.0,29.72,South,181,0.0,0.0,75,0.00,CLR,SKC,0.00,WeatherDisplay:10.37,2013-05-08 08:33:00,
2013-05-08 03:38:00,51.8,44.5,29.72,South,181,0.0,0.0,76,0.00,CLR,SKC,0.00,WeatherDisplay:10.37,2013-05-08 08:38:00,
2013-05-08 03:43:00,52.0,44.3,29.72,South,181,0.0,0.0,75,0.00,CLR,SKC,0.00,WeatherDisplay:10.37,2013-05-08 08:43:00,
2013-05-08 03:48:00,52.2,44.5,29.71,South,181,0.0,0.0,75,0.00,CLR,SKC,0.00,WeatherDisplay:10.37,2013-05-08 08:48:00,
2013-05-08 03:53:00,52.2,44.2,29.72,South,181,0.0,0.0,74,0.00,CLR,SKC,0.00,WeatherDisplay:10.37,2013-05-08 08:53:00,
2013-05-08 03:58:00,52.0,44.0,29.72,South,181,0.0,0.0,74,0.00,CLR,SKC,0.00,WeatherDisplay:10.37,2013-05-08 08:58:00,
2013-05-08 04:03:00,51.9,43.9,29.72,South,181,0.0,0.0,74,0.00,CLR,SKC,0.00,WeatherDisplay:10.37,2013-05-08 09:03:00,
2013-05-08 04:08:00,51.7,43.7,29.72,South,181,0.0,0.0,74,0.00,CLR,SKC,0.00,WeatherDisplay:10.37,2013-05-08 09:08:00,
2013-05-08 04:13:00,51.4,43.7,29.72,South,181,0.0,0.0,75,0.00,CLR,SKC,0.00,WeatherDisplay:10.37,2013-05-08 09:13:00,
2013-05-08 04:18:00,51.2,43.5,29.72,South,181,0.0,0.0,75,0.00,CLR,SKC,0.00,WeatherDisplay:10.37,2013-05-08 09:18:00,
2013-05-08 04:23:00,50.8,43.2,29.72,South,181,0.0,0.0,75,0.00,CLR,SKC,0.00,WeatherDisplay:10.37,2013-05-08 09:23:00,
2013-05-08 04:28:00,50.6,43.3,29.72,South,181,0.0,0.0,76,0.00,CLR,SKC,0.00,WeatherDisplay:10.37,2013-05-08 09:28:00,
2013-05-08 04:33:00,50.4,43.5,29.72,South,181,0.0,0.0,77,0.00,CLR,SKC,0.00,WeatherDisplay:10.37,2013-05-08 09:33:00,
2013-05-08 04:38:00,50.3,43.4,29.72,South,181,0.0,0.0,77,0.00,CLR,SKC,0.00,WeatherDisplay:10.37,2013-05-08 09:38:00,
2013-05-08 04:43:00,50.5,43.6,29.72,South,181,0.0,0.0,77,0.00,CLR,SKC,0.00,WeatherDisplay:10.37,2013-05-08 09:43:00,
2013-05-08 04:48:00,50.6,43.7,29.72,South,181,0.0,0.0,77,0.00,CLR,SKC,0.00,WeatherDisplay:10.37,2013-05-08 09:48:00,
2013-05-08 04:53:00,50.7,43.4,29.72,South,181,0.0,0.0,76,0.00,CLR,SKC,0.00,WeatherDisplay:10.37,2013-05-08 09:53:00,
2013-05-08 04:58:00,50.6,43.7,29.72,South,181,0.0,0.0,77,0.00,CLR,SKC,0.00,WeatherDisplay:10.37,2013-05-08 09:58:00,
2013-05-08 05:03:00,50.7,43.4,29.72,South,181,0.0,0.0,76,0.00,CLR,SKC,0.00,WeatherDisplay:10.37,2013-05-08 10:03:00,
2013-05-08 05:08:00,50.5,43.6,29.72,South,181,0.0,0.0,77,0.00,CLR,SKC,0.00,WeatherDisplay:10.37,2013-05-08 10:08:00,
2013-05-08 05:13:00,50.4,43.5,29.72,South,181,0.0,0.0,77,0.00,CLR,SKC,0.00,WeatherDisplay:10.37,2013-05-08 10:13:00,
2013-05-08 05:18:00,50.3,43.0,29.72,South,181,0.0,0.0,76,0.00,CLR,SKC,0.00,WeatherDisplay:10.37,2013-05-08 10:18:00,
2013-05-08 05:23:00,50.0,42.7,29.72,South,181,0.0,0.0,76,0.00,CLR,SKC,0.00,WeatherDisplay:10.37,2013-05-08 10:23:00,
2013-05-08 05:28:00,49.9,43.0,29.72,South,181,0.0,0.0,77,0.00,CLR,SKC,0.00,WeatherDisplay:10.37,2013-05-08 10:28:00,
2013-05-08 05:33:00,49.6,42.7,29.72,South,181,0.0,0.0,77,0.00,CLR,SKC,0.00,WeatherDisplay:10.37,2013-05-08 10:33:00,
2013-05-08 05:38:00,49.4,42.8,29.72,South,181,0.0,0.0,78,0.00,CLR,SKC,0.00,WeatherDisplay:10.37,2013-05-08 10:38:00,
2013-05-08 05:43:00,49.2,42.3,29.73,South,181,0.0,0.0,77,0.00,CLR,SKC,0.00,WeatherDisplay:10.37,2013-05-08 10:43:00,
2013-05-08 05:48:00,49.0,42.4,29.73,South,181,0.0,0.0,78,0.00,CLR,SKC,0.00,WeatherDisplay:10.37,2013-05-08 10:48:00,
2013-05-08 05:53:00,49.0,42.8,29.73,South,181,0.0,0.0,79,0.00,CLR,SKC,0.00,WeatherDisplay:10.37,2013-05-08 10:53:00,
2013-05-08 05:58:00,49.2,42.6,29.73,South,181,0.0,0.0,78,0.00,CLR,SKC,0.00,WeatherDisplay:10.37,2013-05-08 10:58:00,
2013-05-08 06:03:00,49.2,42.6,29.73,South,181,0.0,0.0,78,0.00,CLR,SKC,0.00,WeatherDisplay:10.37,2013-05-08 11:03:00,
2013-05-08 06:08:00,49.0,42.4,29.73,South,181,0.0,0.0,78,0.00,CLR,SKC,0.00,WeatherDisplay:10.37,2013-05-08 11:08:00,
2013-05-08 06:13:00,49.2,43.0,29.73,South,181,0.0,0.0,79,0.00,CLR,SKC,0.00,WeatherDisplay:10.37,2013-05-08 11:13:00,
2013-05-08 06:18:00,49.5,43.3,29.73,South,181,0.0,0.0,79,0.00,CLR,SKC,0.00,WeatherDisplay:10.37,2013-05-08 11:18:00,
2013-05-08 06:23:00,49.9,43.6,29.73,South,181,0.0,0.0,79,0.00,CLR,SKC,0.00,WeatherDisplay:10.37,2013-05-08 11:23:00,
2013-05-08 06:28:00,50.4,43.8,29.73,South,181,0.0,0.0,78,0.00,CLR,SKC,0.00,WeatherDisplay:10.37,2013-05-08 11:28:00,
2013-05-08 06:33:00,50.7,43.8,29.73,South,181,0.0,0.0,77,0.00,CLR,SKC,0.00,WeatherDisplay:10.37,2013-05-08 11:33:00,
2013-05-08 06:38:00,50.9,43.9,29.73,South,181,0.0,0.0,77,0.00,CLR,SKC,0.00,WeatherDisplay:10.37,2013-05-08 11:38:00,
2013-05-08 06:43:00,50.9,43.9,29.73,South,181,0.0,0.0,77,0.00,CLR,SKC,0.00,WeatherDisplay:10.37,2013-05-08 11:43:00,
2013-05-08 06:48:00,50.8,43.8,29.73,South,181,0.0,0.0,77,0.00,CLR,SKC,0.00,WeatherDisplay:10.37,2013-05-08 11:48:00,
2013-05-08 06:53:00,50.8,43.8,29.73,South,181,1.0,2.0,77,0.00,CLR,SKC,0.00,WeatherDisplay:10.37,2013-05-08 11:53:00,
2013-05-08 06:58:00,50.9,43.9,29.73,South,181,0.0,1.1,77,0.00,CLR,SKC,0.00,WeatherDisplay:10.37,2013-05-08 11:58:00,
2013-05-08 07:03:00,51.2,44.2,29.74,South,181,0.0,0.0,77,0.00,CLR,SKC,0.00,WeatherDisplay:10.37,2013-05-08 12:03:00,
2013-05-08 07:08:00,51.3,44.0,29.74,South,181,0.0,0.0,76,0.00,CLR,SKC,0.00,WeatherDisplay:10.37,2013-05-08 12:08:00,
2013-05-08 07:13:00,51.4,44.4,29.74,South,181,0.0,0.0,77,0.00,CLR,SKC,0.00,WeatherDisplay:10.37,2013-05-08 12:13:00,
2013-05-08 07:18:00,51.6,44.3,29.74,South,181,0.0,0.0,76,0.00,CLR,SKC,0.00,WeatherDisplay:10.37,2013-05-08 12:18:00,
2013-05-08 07:23:00,51.9,44.2,29.74,South,181,0.0,0.0,75,0.00,CLR,SKC,0.00,WeatherDisplay:10.37,2013-05-08 12:23:00,
2013-05-08 07:28:00,52.3,44.6,29.74,South,181,0.0,0.0,75,0.00,CLR,SKC,0.00,WeatherDisplay:10.37,2013-05-08 12:28:00,
2013-05-08 07:33:00,52.7,45.0,29.74,South,181,0.0,0.0,75,0.00,CLR,SKC,0.00,WeatherDisplay:10.37,2013-05-08 12:33:00,
2013-05-08 07:38:00,53.1,45.0,29.74,South,181,0.0,0.0,74,0.00,CLR,SKC,0.00,WeatherDisplay:10.37,2013-05-08 12:38:00,
2013-05-08 07:43:00,53.6,45.9,29.74,South,181,0.0,0.0,75,0.00,CLR,SKC,0.00,WeatherDisplay:10.37,2013-05-08 12:43:00,
2013-05-08 07:48:00,54.0,46.6,29.74,South,181,0.0,0.0,76,0.00,CLR,SKC,0.00,WeatherDisplay:10.37,2013-05-08 12:48:00,
2013-05-08 07:53:00,54.5,47.1,29.74,South,181,1.0,2.3,76,0.00,CLR,SKC,0.00,WeatherDisplay:10.37,2013-05-08 12:53:00,
2013-05-08 07:58:00,55.0,46.9,29.74,South,181,0.2,1.1,74,0.00,CLR,SKC,0.00,WeatherDisplay:10.37,2013-05-08 12:58:00,
2013-05-08 08:03:00,55.4,46.9,29.73,South,181,0.7,2.3,73,0.00,CLR,SKC,0.00,WeatherDisplay:10.37,2013-05-08 13:03:00,
2013-05-08 08:08:00,55.8,48.0,29.74,South,181,1.9,3.0,75,0.00,CLR,SKC,0.00,WeatherDisplay:10.37,2013-05-08 13:08:00,
2013-05-08 08:13:00,56.7,47.8,29.74,South,181,4.0,5.0,72,0.00,CLR,SKC,0.00,WeatherDisplay:10.37,2013-05-08 13:13:00,
2013-05-08 08:18:00,57.4,48.1,29.74,South,181,3.3,4.6,71,0.00,CLR,SKC,0.00,WeatherDisplay:10.37,2013-05-08 13:18:00,
2013-05-08 08:23:00,58.0,48.6,29.74,South,181,2.3,4.6,71,0.00,CLR,SKC,0.00,WeatherDisplay:10.37,2013-05-08 13:23:00,
2013-05-08 08:28:00,58.6,48.8,29.74,South,181,3.3,4.0,70,0.00,CLR,SKC,0.00,WeatherDisplay:10.37,2013-05-08 13:28:00,
2013-05-08 08:33:00,59.3,49.5,29.74,South,181,2.2,4.0,70,0.00,CLR,SKC,0.00,WeatherDisplay:10.37,2013-05-08 13:33:00,
2013-05-08 08:38:00,59.9,50.1,29.74,South,181,2.0,4.0,70,0.00,CLR,SKC,0.00,WeatherDisplay:10.37,2013-05-08 13:38:00,
2013-05-08 08:43:00,60.7,50.5,29.74,South,181,1.6,4.6,69,0.00,CLR,SKC,0.00,WeatherDisplay:10.37,2013-05-08 13:43:00,
2013-05-08 08:48:00,61.6,51.3,29.74,South,181,2.7,3.5,69,0.00,CLR,SKC,0.00,WeatherDisplay:10.37,2013-05-08 13:48:00,
2013-05-08 08:53:00,62.3,52.0,29.74,South,181,2.4,3.5,69,0.00,CLR,SKC,0.00,WeatherDisplay:10.37,2013-05-08 13:53:00,
2013-05-08 08:58:00,63.1,52.4,29.74,South,181,2.6,4.0,68,0.00,CLR,SKC,0.00,WeatherDisplay:10.37,2013-05-08 13:58:00,
2013-05-08 09:03:00,63.6,52.8,29.74,South,181,2.7,4.0,68,0.00,CLR,SKC,0.00,WeatherDisplay:10.37,2013-05-08 14:03:00,
2013-05-08 09:08:00,64.1,52.9,29.74,South,181,1.9,3.5,67,0.00,CLR,SKC,0.00,WeatherDisplay:10.37,2013-05-08 14:08:00,
2013-05-08 09:13:00,65.1,53.9,29.74,South,181,3.3,4.0,67,0.00,CLR,SKC,0.00,WeatherDisplay:10.37,2013-05-08 14:13:00,
2013-05-08 09:18:00,66.1,54.8,29.74,South,181,2.9,4.0,67,0.00,CLR,SKC,0.00,WeatherDisplay:10.37,2013-05-08 14:18:00,
2013-05-08 09:23:00,67.0,54.8,29.74,South,169,2.9,5.8,65,0.00,CLR,SKC,0.00,WeatherDisplay:10.37,2013-05-08 14:23:00,
2013-05-08 09:28:00,67.8,55.6,29.74,South,169,2.6,4.6,65,0.00,CLR,SKC,0.00,WeatherDisplay:10.37,2013-05-08 14:28:00,
2013-05-08 09:33:00,68.7,55.2,29.74,South,169,1.2,3.5,62,0.00,CLR,SKC,0.00,WeatherDisplay:10.37,2013-05-08 14:33:00,
2013-05-08 09:38:00,69.7,56.5,29.74,South,169,1.7,4.0,63,0.00,CLR,SKC,0.00,WeatherDisplay:10.37,2013-05-08 14:38:00,
2013-05-08 09:43:00,70.5,55.5,29.74,South,169,4.3,6.0,59,0.00,CLR,SKC,0.00,WeatherDisplay:10.37,2013-05-08 14:43:00,
2013-05-08 09:48:00,70.7,56.6,29.74,South,169,4.8,7.0,61,0.00,CLR,SKC,0.00,WeatherDisplay:10.37,2013-05-08 14:48:00,
2013-05-08 09:53:00,70.7,56.1,29.73,SSE,166,6.4,8.1,60,0.00,CLR,SKC,0.00,WeatherDisplay:10.37,2013-05-08 14:53:00,
2013-05-08 09:58:00,70.8,56.2,29.73,SSE,166,3.3,6.0,60,0.00,CLR,SKC,0.00,WeatherDisplay:10.37,2013-05-08 14:58:00,
2013-05-08 10:03:00,71.2,56.6,29.73,SSE,157,4.7,6.9,60,0.00,CLR,SKC,0.00,WeatherDisplay:10.37,2013-05-08 15:03:00,
2013-05-08 10:08:00,71.8,57.6,29.73,SSE,153,5.0,7.0,61,0.00,CLR,SKC,0.00,WeatherDisplay:10.37,2013-05-08 15:08:00,
2013-05-08 10:13:00,71.9,56.8,29.73,SE,144,2.9,5.8,59,0.00,CLR,SKC,0.00,WeatherDisplay:10.37,2013-05-08 15:13:00,
2013-05-08 10:18:00,72.3,56.7,29.73,SSE,168,3.9,5.8,58,0.00,CLR,SKC,0.00,WeatherDisplay:10.37,2013-05-08 15:18:00,
2013-05-08 10:23:00,72.6,57.9,29.73,SSE,161,4.7,8.1,60,0.00,CLR,SKC,0.00,WeatherDisplay:10.37,2013-05-08 15:23:00,
2013-05-08 10:28:00,72.8,57.2,29.73,SSE,149,6.4,9.2,58,0.00,CLR,SKC,0.00,WeatherDisplay:10.37,2013-05-08 15:28:00,
2013-05-08 10:33:00,72.9,57.3,29.73,SSE,161,7.8,9.2,58,0.00,CLR,SKC,0.00,WeatherDisplay:10.37,2013-05-08 15:33:00,
2013-05-08 10:38:00,73.0,56.4,29.73,SSE,154,5.0,7.0,56,0.00,CLR,SKC,0.00,WeatherDisplay:10.37,2013-05-08 15:38:00,
2013-05-08 10:43:00,73.6,57.4,29.73,SSE,152,6.6,8.1,57,0.00,CLR,SKC,0.00,WeatherDisplay:10.37,2013-05-08 15:43:00,
2013-05-08 10:48:00,73.8,56.1,29.73,SSE,168,6.1,8.1,54,0.00,CLR,SKC,0.00,WeatherDisplay:10.37,2013-05-08 15:48:00,
2013-05-08 10:53:00,73.7,56.5,29.73,SSE,163,4.9,10.4,55,0.00,CLR,SKC,0.00,WeatherDisplay:10.37,2013-05-08 15:53:00,
2013-05-08 10:58:00,74.2,57.0,29.73,South,175,5.4,10.4,55,0.00,CLR,SKC,0.00,WeatherDisplay:10.37,2013-05-08 15:58:00,
2013-05-08 11:03:00,74.2,55.4,29.73,SSE,157,7.5,12.0,52,0.00,CLR,SKC,0.00,WeatherDisplay:10.37,2013-05-08 16:03:00,
2013-05-08 11:08:00,74.2,57.0,29.73,South,178,4.8,10.4,55,0.00,CLR,SKC,0.00,WeatherDisplay:10.37,2013-05-08 16:08:00,
2013-05-08 11:13:00,74.7,55.9,29.73,SSE,167,5.3,8.1,52,0.00,CLR,SKC,0.00,WeatherDisplay:10.37,2013-05-08 16:13:00,
2013-05-08 11:18:00,74.9,56.1,29.73,SSE,165,8.7,11.5,52,0.00,CLR,SKC,0.00,WeatherDisplay:10.37,2013-05-08 16:18:00,
2013-05-08 11:23:00,75.3,57.0,29.73,SE,126,8.8,12.0,53,0.00,CLR,SKC,0.00,WeatherDisplay:10.37,2013-05-08 16:23:00,
2013-05-08 11:28:00,75.5,56.6,29.73,SSE,166,7.0,12.7,52,0.00,CLR,SKC,0.00,WeatherDisplay:10.37,2013-05-08 16:28:00,
2013-05-08 11:33:00,75.2,56.4,29.73,SE,129,6.8,10.4,52,0.00,CLR,SKC,0.00,WeatherDisplay:10.37,2013-05-08 16:33:00,
2013-05-08 11:38:00,74.9,54.4,29.73,SSE,153,8.0,11.5,49,0.00,CLR,SKC,0.00,WeatherDisplay:10.37,2013-05-08 16:38:00,
2013-05-08 11:43:00,74.8,54.4,29.73,South,178,7.2,12.7,49,0.00,CLR,SKC,0.00,WeatherDisplay:10.37,2013-05-08 16:43:00,
2013-05-08 11:48:00,74.6,54.7,29.73,SSE,166,10.7,15.0,50,0.00,CLR,SKC,0.00,WeatherDisplay:10.37,2013-05-08 16:48:00,
2013-05-08 11:53:00,74.5,54.6,29.73,South,171,8.5,12.0,50,0.00,CLR,SKC,0.00,WeatherDisplay:10.37,2013-05-08 16:53:00,
2013-05-08 11:58:00,74.3,54.5,29.73,SSE,168,10.5,17.3,50,0.00,CLR,SKC,0.00,WeatherDisplay:10.37,2013-05-08 16:58:00,
2013-05-08 12:03:00,73.8,54.5,29.73,SSE,162,9.4,11.5,51,0.00,SCT,SKC,0.00,WeatherDisplay:10.37,2013-05-08 17:03:00,
2013-05-08 12:08:00,73.7,54.4,29.73,South,173,11.1,16.1,51,0.00,SCT,SKC,0.00,WeatherDisplay:10.37,2013-05-08 17:08:00,
2013-05-08 12:13:00,74.1,55.3,29.72,SSE,157,10.1,12.0,52,0.00,SCT,SKC,0.00,WeatherDisplay:10.37,2013-05-08 17:13:00,
2013-05-08 12:18:00,75.1,55.7,29.72,SE,136,11.9,15.0,51,0.00,SCT,SKC,0.00,WeatherDisplay:10.37,2013-05-08 17:18:00,
2013-05-08 12:23:00,75.7,55.7,29.72,SSE,147,9.4,15.0,50,0.00,CLR,SKC,0.00,WeatherDisplay:10.37,2013-05-08 17:23:00,
2013-05-08 12:28:00,75.3,54.8,29.72,SSE,158,10.3,13.8,49,0.00,CLR,SKC,0.00,WeatherDisplay:10.37,2013-05-08 17:28:00,
2013-05-08 12:33:00,75.1,55.7,29.72,South,179,10.4,18.0,51,0.00,CLR,SKC,0.00,WeatherDisplay:10.37,2013-05-08 17:33:00,
2013-05-08 12:38:00,74.8,53.8,29.72,South,169,11.9,14.0,48,0.00,CLR,SKC,0.00,WeatherDisplay:10.37,2013-05-08 17:38:00,
2013-05-08 12:43:00,74.9,55.0,29.72,South,173,6.1,12.0,50,0.00,CLR,SKC,0.00,WeatherDisplay:10.37,2013-05-08 17:43:00,
2013-05-08 12:48:00,76.0,54.3,29.72,SSE,157,11.7,17.3,47,0.00,CLR,SKC,0.00,WeatherDisplay:10.37,2013-05-08 17:48:00,
2013-05-08 12:53:00,76.2,54.5,29.72,South,178,9.3,14.0,47,0.00,CLR,SKC,0.00,WeatherDisplay:10.37,2013-05-08 17:53:00,
2013-05-08 12:58:00,76.4,54.1,29.71,South,182,9.7,11.5,46,0.00,CLR,SKC,0.00,WeatherDisplay:10.37,2013-05-08 17:58:00,
2013-05-08 13:03:00,75.3,53.1,29.71,South,172,6.0,8.1,46,0.00,BKN,SKC,0.00,WeatherDisplay:10.37,2013-05-08 18:03:00,
2013-05-08 13:08:00,74.5,52.9,29.71,SSE,155,8.1,11.5,47,0.00,BKN,SKC,0.00,WeatherDisplay:10.37,2013-05-08 18:08:00,
2013-05-08 13:13:00,74.3,53.9,29.71,SSE,153,9.0,12.0,49,0.00,BKN,SKC,0.00,WeatherDisplay:10.37,2013-05-08 18:13:00,
2013-05-08 13:18:00,75.4,54.9,29.71,SSE,163,12.1,16.1,49,0.00,BKN,SKC,0.00,WeatherDisplay:10.37,2013-05-08 18:18:00,
2013-05-08 13:23:00,76.4,53.5,29.71,SSE,149,11.5,13.0,45,0.00,SCT,SKC,0.00,WeatherDisplay:10.37,2013-05-08 18:23:00,
2013-05-08 13:28:00,76.5,54.2,29.71,SSE,166,4.6,11.5,46,0.00,SCT,SKC,0.00,WeatherDisplay:10.37,2013-05-08 18:28:00,
2013-05-08 13:33:00,75.8,52.9,29.70,SSE,158,12.3,16.1,45,0.00,SCT,SKC,0.00,WeatherDisplay:10.37,2013-05-08 18:33:00,
2013-05-08 13:38:00,75.5,53.9,29.70,SSE,166,9.0,12.0,47,0.00,SCT,SKC,0.00,WeatherDisplay:10.37,2013-05-08 18:38:00,
2013-05-08 13:43:00,75.6,54.5,29.70,SSE,161,8.5,11.5,48,0.00,CLR,SKC,0.00,WeatherDisplay:10.37,2013-05-08 18:43:00,
2013-05-08 13:48:00,76.2,53.9,29.70,South,176,8.0,11.5,46,0.00,CLR,SKC,0.00,WeatherDisplay:10.37,2013-05-08 18:48:00,
2013-05-08 13:53:00,76.6,53.1,29.70,ESE,117,8.1,11.5,44,0.00,CLR,SKC,0.00,WeatherDisplay:10.37,2013-05-08 18:53:00,
2013-05-08 13:58:00,76.8,53.8,29.70,SSE,163,10.2,13.8,45,0.00,CLR,SKC,0.00,WeatherDisplay:10.37,2013-05-08 18:58:00,
2013-05-08 14:03:00,76.4,52.9,29.70,SSE,166,2.4,12.7,44,0.00,BKN,SKC,0.00,WeatherDisplay:10.37,2013-05-08 19:03:00,
2013-05-08 14:08:00,76.6,53.1,29.70,SSE,161,5.4,10.0,44,0.00,BKN,SKC,0.00,WeatherDisplay:10.37,2013-05-08 19:08:00,
2013-05-08 14:13:00,76.2,52.7,29.70,SSE,157,7.0,13.8,44,0.00,BKN,SKC,0.00,WeatherDisplay:10.37,2013-05-08 19:13:00,
2013-05-08 14:18:00,75.1,54.1,29.69,SE,146,6.2,12.7,48,0.00,BKN,SKC,0.00,WeatherDisplay:10.37,2013-05-08 19:18:00,
2013-05-08 14:23:00,74.7,53.1,29.69,SSE,161,8.7,11.5,47,0.00,BKN,SKC,0.00,WeatherDisplay:10.37,2013-05-08 19:23:00,
2013-05-08 14:28:00,74.4,52.9,29.69,South,178,5.3,10.4,47,0.00,BKN,SKC,0.00,WeatherDisplay:10.37,2013-05-08 19:28:00,
2013-05-08 14:33:00,74.4,52.3,29.69,South,171,4.1,7.0,46,0.00,BKN,SKC,0.00,WeatherDisplay:10.37,2013-05-08 19:33:00,
2013-05-08 14:38:00,74.3,52.8,29.69,SSE,165,9.6,12.7,47,0.00,BKN,SKC,0.00,WeatherDisplay:10.37,2013-05-08 19:38:00,
2013-05-08 14:43:00,73.7,52.2,29.69,South,169,9.5,12.0,47,0.00,OVC,SKC,0.00,WeatherDisplay:10.37,2013-05-08 19:43:00,
2013-05-08 14:48:00,73.1,52.2,29.69,South,170,6.3,9.2,48,0.00,OVC,SKC,0.00,WeatherDisplay:10.37,2013-05-08 19:48:00,
2013-05-08 14:53:00,72.8,53.1,29.69,SSE,167,4.5,6.0,50,0.00,OVC,SKC,0.00,WeatherDisplay:10.37,2013-05-08 19:53:00,
2013-05-08 14:58:00,72.6,53.4,29.69,South,171,6.3,10.4,51,0.00,OVC,SKC,0.00,WeatherDisplay:10.37,2013-05-08 19:58:00,
2013-05-08 15:03:00,71.4,53.4,29.70,West,279,7.4,15.0,53,0.00,OVC,SKC,0.00,WeatherDisplay:10.37,2013-05-08 20:03:00,
2013-05-08 15:08:00,69.2,55.6,29.69,WNW,285,3.5,5.8,62,0.01,RA,SKC,0.01,WeatherDisplay:10.37,2013-05-08 20:08:00,
2013-05-08 15:13:00,68.1,55.9,29.69,WNW,285,0.3,1.1,65,0.01,RA,SKC,0.01,WeatherDisplay:10.37,2013-05-08 20:13:00,
2013-05-08 15:18:00,67.7,55.9,29.69,WNW,285,0.4,1.1,66,0.01,OVC,SKC,0.01,WeatherDisplay:10.37,2013-05-08 20:18:00,
2013-05-08 15:23:00,67.7,55.9,29.69,WNW,285,0.0,0.0,66,0.01,OVC,SKC,0.01,WeatherDisplay:10.37,2013-05-08 20:23:00,
2013-05-08 15:28:00,68.0,55.8,29.69,WNW,285,0.0,0.0,65,0.01,OVC,SKC,0.01,WeatherDisplay:10.37,2013-05-08 20:28:00,
2013-05-08 15:33:00,68.5,55.8,29.69,WNW,285,0.0,0.0,64,0.01,OVC,SKC,0.01,WeatherDisplay:10.37,2013-05-08 20:33:00,
2013-05-08 15:38:00,69.0,56.3,29.69,WNW,285,0.0,0.0,64,0.01,OVC,SKC,0.01,WeatherDisplay:10.37,2013-05-08 20:38:00,
2013-05-08 15:43:00,69.5,55.9,29.68,WNW,285,0.0,0.0,62,0.01,SCT,SKC,0.01,WeatherDisplay:10.37,2013-05-08 20:43:00,
2013-05-08 15:48:00,69.9,56.3,29.68,WNW,285,0.0,0.0,62,0.01,SCT,SKC,0.01,WeatherDisplay:10.37,2013-05-08 20:48:00,
2013-05-08 15:53:00,70.3,57.1,29.68,WNW,285,0.0,0.0,63,0.01,SCT,SKC,0.01,WeatherDisplay:10.37,2013-05-08 20:53:00,
2013-05-08 15:58:00,70.3,57.1,29.68,WNW,285,0.0,1.1,63,0.01,SCT,SKC,0.01,WeatherDisplay:10.37,2013-05-08 20:58:00,
2013-05-08 16:03:00,70.4,56.8,29.68,WNW,285,0.1,1.1,62,0.01,SCT,SKC,0.01,WeatherDisplay:10.37,2013-05-08 21:03:00,
2013-05-08 16:08:00,70.1,57.8,29.69,SSE,157,7.8,11.5,65,0.00,SCT,SKC,0.01,WeatherDisplay:10.37,2013-05-08 21:08:00,
2013-05-08 16:13:00,69.3,51.9,29.68,East,98,9.7,19.6,54,0.00,SCT,SKC,0.01,WeatherDisplay:10.37,2013-05-08 21:13:00,
2013-05-08 16:18:00,69.0,52.6,29.68,ENE,71,3.3,8.1,56,0.00,SCT,SKC,0.01,WeatherDisplay:10.37,2013-05-08 21:18:00,
2013-05-08 16:23:00,68.8,53.9,29.68,ENE,78,1.8,3.5,59,0.00,-RA,SKC,0.01,WeatherDisplay:10.37,2013-05-08 21:23:00,
2013-05-08 16:29:00,68.7,54.3,29.68,ENE,74,1.2,3.5,60,0.00,-RA,SKC,0.01,WeatherDisplay:10.37,2013-05-08 21:29:00,
2013-05-08 16:34:00,68.7,54.7,29.68,ENE,74,1.4,4.0,61,0.00,-RA,SKC,0.01,WeatherDisplay:10.37,2013-05-08 21:34:00,
2013-05-08 16:39:00,68.8,55.2,29.68,NE,56,1.0,2.3,62,0.00,-RA,SKC,0.01,WeatherDisplay:10.37,2013-05-08 21:39:00,
2013-05-08 16:44:00,68.9,54.9,29.67,NE,56,1.0,3.5,61,0.00,BKN,SKC,0.01,WeatherDisplay:10.37,2013-05-08 21:44:00,
2013-05-08 16:49:00,69.0,55.4,29.67,NE,56,0.4,2.3,62,0.00,BKN,SKC,0.01,WeatherDisplay:10.37,2013-05-08 21:49:00,
2013-05-08 16:54:00,69.2,54.7,29.67,NE,56,1.0,2.3,60,0.00,BKN,SKC,0.01,WeatherDisplay:10.37,2013-05-08 21:54:00,
2013-05-08 16:59:00,69.5,55.0,29.67,NE,56,1.1,3.5,60,0.00,BKN,SKC,0.01,WeatherDisplay:10.37,2013-05-08 21:59:00,
2013-05-08 17:04:00,69.9,55.4,29.67,NE,56,0.5,3.5,60,0.00,SCT,SKC,0.01,WeatherDisplay:10.37,2013-05-08 22:04:00,
2013-05-08 17:09:00,70.2,56.1,29.67,NE,56,0.1,1.1,61,0.00,SCT,SKC,0.01,WeatherDisplay:10.37,2013-05-08 22:09:00,
2013-05-08 17:14:00,70.4,54.9,29.67,NE,56,0.2,1.1,58,0.00,SCT,SKC,0.01,WeatherDisplay:10.37,2013-05-08 22:14:00,
2013-05-08 17:19:00,70.7,55.7,29.67,NE,56,0.1,1.1,59,0.00,SCT,SKC,0.01,WeatherDisplay:10.37,2013-05-08 22:19:00,
2013-05-08 17:24:00,70.6,55.6,29.68,SW,224,6.5,10.4,59,0.00,-RA,SKC,0.01,WeatherDisplay:10.37,2013-05-08 22:24:00,
2013-05-08 17:29:00,69.7,55.6,29.68,WSW,245,4.7,8.1,61,0.00,-RA,SKC,0.01,WeatherDisplay:10.37,2013-05-08 22:29:00,
2013-05-08 17:34:00,68.6,55.1,29.68,West,271,6.6,8.1,62,0.00,-RA,SKC,0.01,WeatherDisplay:10.37,2013-05-08 22:34:00,
2013-05-08 17:39:00,67.6,55.4,29.68,West,274,2.4,4.6,65,0.00,-RA,SKC,0.01,WeatherDisplay:10.37,2013-05-08 22:39:00,
2013-05-08 17:44:00,66.7,54.6,29.68,WSW,242,3.1,6.0,65,0.00,-RA,SKC,0.01,WeatherDisplay:10.37,2013-05-08 22:44:00,
2013-05-08 17:49:00,66.2,54.5,29.68,WSW,241,2.4,6.0,66,0.00,-RA,SKC,0.01,WeatherDisplay:10.37,2013-05-08 22:49:00,
2013-05-08 17:54:00,65.6,54.3,29.69,WSW,250,2.6,5.0,67,0.00,-RA,SKC,0.01,WeatherDisplay:10.37,2013-05-08 22:54:00,
2013-05-08 17:59:00,65.2,54.0,29.69,SSW,207,1.5,5.0,67,0.00,-RA,SKC,0.01,WeatherDisplay:10.37,2013-05-08 22:59:00,
2013-05-08 18:04:00,64.7,53.5,29.69,WSW,248,2.8,6.0,67,0.00,OVC,SKC,0.01,WeatherDisplay:10.37,2013-05-08 23:04:00,
2013-05-08 18:09:00,64.4,53.6,29.69,South,175,1.5,3.5,68,0.00,OVC,SKC,0.01,WeatherDisplay:10.37,2013-05-08 23:09:00,
2013-05-08 18:14:00,64.2,53.4,29.70,SSW,212,1.7,3.5,68,0.00,OVC,SKC,0.01,WeatherDisplay:10.37,2013-05-08 23:14:00,
2013-05-08 18:19:00,63.9,53.1,29.70,SSW,212,0.9,3.5,68,0.00,OVC,SKC,0.01,WeatherDisplay:10.37,2013-05-08 23:19:00,
2013-05-08 18:24:00,63.6,52.8,29.70,SSW,212,0.1,1.1,68,0.00,OVC,SKC,0.01,WeatherDisplay:10.37,2013-05-08 23:24:00,
2013-05-08 18:29:00,63.4,52.7,29.70,South,191,4.3,5.0,68,0.00,OVC,SKC,0.01,WeatherDisplay:10.37,2013-05-08 23:29:00,
2013-05-08 18:34:00,63.1,52.4,29.70,South,178,0.6,3.5,68,0.00,OVC,SKC,0.01,WeatherDisplay:10.37,2013-05-08 23:34:00,
2013-05-08 18:39:00,63.1,52.8,29.70,SSW,193,6.3,10.4,69,0.00,OVC,SKC,0.01,WeatherDisplay:10.37,2013-05-08 23:39:00,
2013-05-08 18:44:00,63.3,52.6,29.71,West,267,3.4,6.0,68,0.00,-RA,SKC,0.01,WeatherDisplay:10.37,2013-05-08 23:44:00,
2013-05-08 18:49:00,63.0,52.3,29.71,SW,235,1.7,3.5,68,0.00,-RA,SKC,0.01,WeatherDisplay:10.37,2013-05-08 23:49:00,
2013-05-08 18:54:00,62.6,51.9,29.70,WSW,252,1.5,4.6,68,0.00,-RA,SKC,0.01,WeatherDisplay:10.37,2013-05-08 23:54:00,
2013-05-08 18:59:00,62.2,51.9,29.70,West,269,1.5,3.5,69,0.00,-RA,SKC,0.01,WeatherDisplay:10.37,2013-05-08 23:59:00,
2013-05-08 19:04:00,61.9,51.6,29.70,West,267,0.8,2.3,69,0.00,OVC,SKC,0.01,WeatherDisplay:10.37,2013-05-09 00:04:00,
2013-05-08 19:09:00,61.7,51.4,29.70,West,263,0.5,2.3,69,0.00,OVC,SKC,0.01,WeatherDisplay:10.37,2013-05-09 00:09:00,
2013-05-08 19:14:00,61.4,51.5,29.70,West,263,0.0,1.1,70,0.01,RA,SKC,0.02,WeatherDisplay:10.37,2013-05-09 00:14:00,
2013-05-08 19:19:00,61.1,51.6,29.70,West,263,1.3,2.3,71,0.01,RA,SKC,0.02,WeatherDisplay:10.37,2013-05-09 00:19:00,
2013-05-08 19:24:00,61.0,51.5,29.70,West,263,0.6,2.3,71,0.01,-RA,SKC,0.02,WeatherDisplay:10.37,2013-05-09 00:24:00,
2013-05-08 19:29:00,60.8,51.3,29.70,West,263,0.0,1.1,71,0.01,-RA,SKC,0.02,WeatherDisplay:10.37,2013-05-09 00:29:00,
2013-05-08 19:34:00,60.7,51.6,29.70,West,263,0.1,1.0,72,0.01,-RA,SKC,0.02,WeatherDisplay:10.37,2013-05-09 00:34:00,
2013-05-08 19:39:00,60.7,51.6,29.70,West,263,0.2,1.1,72,0.01,-RA,SKC,0.02,WeatherDisplay:10.37,2013-05-09 00:39:00,
2013-05-08 19:44:00,60.6,51.9,29.70,West,263,0.0,0.0,73,0.01,BKN,SKC,0.02,WeatherDisplay:10.37,2013-05-09 00:44:00,
2013-05-08 19:49:00,60.5,51.0,29.70,West,263,0.0,0.0,71,0.01,BKN,SKC,0.02,WeatherDisplay:10.37,2013-05-09 00:49:00,
2013-05-08 19:54:00,60.4,51.0,29.70,West,263,0.0,0.0,71,0.01,BKN,SKC,0.02,WeatherDisplay:10.37,2013-05-09 00:54:00,
2013-05-08 19:59:00,60.4,51.0,29.70,West,263,0.0,0.0,71,0.01,BKN,SKC,0.02,WeatherDisplay:10.37,2013-05-09 00:59:00,
2013-05-08 20:04:00,60.4,50.6,29.70,West,263,0.0,0.0,70,0.01,BKN,SKC,0.02,WeatherDisplay:10.37,2013-05-09 01:04:00,
2013-05-08 20:09:00,60.2,51.1,29.70,West,261,2.4,3.5,72,0.01,BKN,SKC,0.02,WeatherDisplay:10.37,2013-05-09 01:09:00,
2013-05-08 20:14:00,59.9,51.6,29.70,WSW,258,0.0,0.0,74,0.00,BKN,SKC,0.02,WeatherDisplay:10.37,2013-05-09 01:14:00,
2013-05-08 20:19:00,59.7,51.0,29.70,WSW,258,0.0,0.0,73,0.00,BKN,SKC,0.02,WeatherDisplay:10.37,2013-05-09 01:19:00,
2013-05-08 20:24:00,59.6,51.3,29.70,WSW,258,0.0,0.0,74,0.00,BKN,SKC,0.02,WeatherDisplay:10.37,2013-05-09 01:24:00,
2013-05-08 20:29:00,59.6,51.3,29.70,WSW,258,0.0,0.0,74,0.00,BKN,SKC,0.02,WeatherDisplay:10.37,2013-05-09 01:29:00,
2013-05-08 20:34:00,59.6,50.9,29.70,WSW,258,0.0,0.0,73,0.00,BKN,SKC,0.02,WeatherDisplay:10.37,2013-05-09 01:34:00,
2013-05-08 20:39:00,59.6,50.9,29.71,WSW,258,0.0,0.0,73,0.00,BKN,SKC,0.02,WeatherDisplay:10.37,2013-05-09 01:39:00,
2013-05-08 20:44:00,59.5,51.6,29.71,WSW,258,0.0,0.0,75,0.00,OVC,SKC,0.02,WeatherDisplay:10.37,2013-05-09 01:44:00,
2013-05-08 20:49:00,59.3,51.4,29.71,WSW,258,0.0,0.0,75,0.00,OVC,SKC,0.02,WeatherDisplay:10.37,2013-05-09 01:49:00,
2013-05-08 20:54:00,59.1,51.2,29.72,WSW,238,1.2,2.3,75,0.00,OVC,SKC,0.02,WeatherDisplay:10.37,2013-05-09 01:54:00,
2013-05-08 20:59:00,58.8,51.2,29.72,SW,222,1.2,3.5,76,0.00,OVC,SKC,0.02,WeatherDisplay:10.37,2013-05-09 01:59:00,
2013-05-08 21:04:00,58.6,51.1,29.72,SW,222,0.3,1.1,76,0.00,OVC,SKC,0.02,WeatherDisplay:10.37,2013-05-09 02:04:00,
2013-05-08 21:09:00,58.4,51.2,29.72,SW,215,2.1,3.5,77,0.00,OVC,SKC,0.02,WeatherDisplay:10.37,2013-05-09 02:09:00,
2013-05-08 21:14:00,58.4,50.9,29.72,SSE,155,3.9,5.0,76,0.00,OVC,SKC,0.02,WeatherDisplay:10.37,2013-05-09 02:14:00,
2013-05-08 21:19:00,58.5,51.0,29.72,SSE,155,2.7,4.0,76,0.00,OVC,SKC,0.02,WeatherDisplay:10.37,2013-05-09 02:19:00,
2013-05-08 21:24:00,58.4,50.9,29.72,SSE,155,2.8,4.0,76,0.00,OVC,SKC,0.02,WeatherDisplay:10.37,2013-05-09 02:24:00,
2013-05-08 21:29:00,58.3,50.8,29.72,SSE,155,1.4,3.5,76,0.00,OVC,SKC,0.02,WeatherDisplay:10.37,2013-05-09 02:29:00,
2013-05-08 21:34:00,58.3,51.1,29.72,SSE,155,2.6,3.5,77,0.00,OVC,SKC,0.02,WeatherDisplay:10.37,2013-05-09 02:34:00,
2013-05-08 21:39:00,58.3,51.1,29.72,SSE,155,0.4,1.1,77,0.00,OVC,SKC,0.02,WeatherDisplay:10.37,2013-05-09 02:39:00,
2013-05-08 21:44:00,58.2,51.0,29.72,SSE,155,0.5,2.3,77,0.00,-RA,SKC,0.02,WeatherDisplay:10.37,2013-05-09 02:44:00,
2013-05-08 21:49:00,58.2,51.0,29.72,SSE,155,0.8,2.3,77,0.00,-RA,SKC,0.02,WeatherDisplay:10.37,2013-05-09 02:49:00,
2013-05-08 21:54:00,58.2,51.0,29.72,SSE,155,0.4,2.3,77,0.00,-RA,SKC,0.02,WeatherDisplay:10.37,2013-05-09 02:54:00,
2013-05-08 21:59:00,58.2,51.0,29.72,SSE,155,0.8,2.3,77,0.00,-RA,SKC,0.02,WeatherDisplay:10.37,2013-05-09 02:59:00,
2013-05-08 22:04:00,58.2,51.0,29.72,SSE,155,0.0,1.1,77,0.00,-RA,SKC,0.02,WeatherDisplay:10.37,2013-05-09 03:04:00,
2013-05-08 22:09:00,58.2,50.7,29.72,SSE,155,0.1,2.3,76,0.00,-RA,SKC,0.02,WeatherDisplay:10.37,2013-05-09 03:09:00,
2013-05-08 22:14:00,58.1,50.9,29.72,SSE,155,0.7,1.1,77,0.00,-RA,SKC,0.02,WeatherDisplay:10.37,2013-05-09 03:14:00,
2013-05-08 22:19:00,58.0,50.8,29.72,SSE,155,0.0,2.3,77,0.00,-RA,SKC,0.02,WeatherDisplay:10.37,2013-05-09 03:19:00,
2013-05-08 22:24:00,58.0,50.8,29.72,SSE,155,0.9,2.3,77,0.00,OVC,SKC,0.02,WeatherDisplay:10.37,2013-05-09 03:24:00,
2013-05-08 22:29:00,57.9,50.7,29.72,SSE,155,0.4,2.3,77,0.00,OVC,SKC,0.02,WeatherDisplay:10.37,2013-05-09 03:29:00,
2013-05-08 22:34:00,57.8,50.6,29.72,SSE,155,0.3,1.1,77,0.00,OVC,SKC,0.02,WeatherDisplay:10.37,2013-05-09 03:34:00,
2013-05-08 22:39:00,57.8,50.6,29.72,SSE,155,0.8,2.3,77,0.00,OVC,SKC,0.02,WeatherDisplay:10.37,2013-05-09 03:39:00,
2013-05-08 22:44:00,57.8,50.3,29.72,SSE,155,1.8,3.5,76,0.00,-RA,SKC,0.02,WeatherDisplay:10.37,2013-05-09 03:44:00,
2013-05-08 22:49:00,57.8,50.6,29.72,SSE,155,0.9,2.3,77,0.01,-RA,SKC,0.03,WeatherDisplay:10.37,2013-05-09 03:49:00,
2013-05-08 22:54:00,57.8,50.6,29.72,SSE,155,0.8,2.3,77,0.01,-RA,SKC,0.03,WeatherDisplay:10.37,2013-05-09 03:54:00,
2013-05-08 22:59:00,57.7,50.5,29.72,SSE,155,1.5,3.5,77,0.01,-RA,SKC,0.03,WeatherDisplay:10.37,2013-05-09 03:59:00,
2013-05-08 23:01:00,57.6,50.4,29.72,SSE,155,0.8,2.3,77,0.01,-RA,SKC,0.03,WeatherDisplay:10.37,2013-05-09 04:01:00,
2013-05-08 23:02:00,57.6,50.4,29.72,SSE,155,0.3,2.3,77,0.01,-RA,SKC,0.03,WeatherDisplay:10.37,2013-05-09 04:02:00,
2013-05-08 23:04:00,57.6,50.4,29.72,SSE,155,0.1,1.1,77,0.01,-RA,SKC,0.03,WeatherDisplay:10.37,2013-05-09 04:04:00,
2013-05-08 23:05:00,57.6,50.4,29.72,SSE,155,0.7,2.3,77,0.02,-RA,SKC,0.04,WeatherDisplay:10.37,2013-05-09 04:05:00,
2013-05-08 23:10:00,57.5,50.3,29.72,SSE,155,0.8,2.3,77,0.02,-RA,SKC,0.04,WeatherDisplay:10.37,2013-05-09 04:10:00,
2013-05-08 23:15:00,57.3,50.5,29.72,SSE,155,1.1,2.3,78,0.02,-RA,SKC,0.04,WeatherDisplay:10.37,2013-05-09 04:15:00,
2013-05-08 23:19:00,57.2,50.4,29.72,SSE,155,0.5,2.3,78,0.02,-RA,SKC,0.04,WeatherDisplay:10.37,2013-05-09 04:19:00,
2013-05-08 23:24:00,57.2,50.4,29.71,SSE,155,1.0,2.3,78,0.02,-RA,SKC,0.04,WeatherDisplay:10.37,2013-05-09 04:24:00,
2013-05-08 23:29:00,57.3,50.5,29.71,SSE,155,2.4,4.6,78,0.02,-RA,SKC,0.04,WeatherDisplay:10.37,2013-05-09 04:29:00,
2013-05-08 23:34:00,57.3,50.5,29.71,SSE,155,2.9,4.0,78,0.02,-RA,SKC,0.04,WeatherDisplay:10.37,2013-05-09 04:34:00,
2013-05-08 23:39:00,57.4,50.6,29.71,SSE,153,4.5,6.0,78,0.02,-RA,SKC,0.04,WeatherDisplay:10.37,2013-05-09 04:39:00,
2013-05-08 23:44:00,57.5,50.7,29.71,SE,142,3.3,5.0,78,0.02,OVC,SKC,0.04,WeatherDisplay:10.37,2013-05-09 04:44:00,
2013-05-08 23:49:00,57.5,50.7,29.71,SE,142,3.6,5.0,78,0.01,OVC,SKC,0.04,WeatherDisplay:10.37,2013-05-09 04:49:00,
2013-05-08 23:54:00,57.4,50.6,29.70,SE,141,3.6,5.0,78,0.01,OVC,SKC,0.04,WeatherDisplay:10.37,2013-05-09 04:54:00,
2013-05-08 23:59:00,57.3,50.5,29.70,SE,141,2.4,4.0,78,0.01,OVC,SKC,0.04,WeatherDisplay:10.37,2013-05-09 04:59:00,